Content
SEND FEEDBACK

Daily
Averages
Monthly
Summary
United States of America

NEW YORK - CENTRAL PARK, NEW YORK


Home > North America > United States > New York
Elevation: 14 feet     Latitude: 40 47N     Longitude: 073 58W

WEATHER
 
SELECT A DAY
Number of Records: 150,546;   Date Range: 11/1/95 - 9/30/14
 
SHARE

PRINT THIS DATA

[ ← Previous Day ]
WEATHER ALMANAC - FEBRUARY 6, 2013
[ Next Day → ]
[ °C ]   °F
Weather ElementAverageHighLow
Temperature33.5 °F39 °F (2:51 pm)28.9 °F (11:51 pm)
Dewpoint18.1 °F28 °F (1:51 am) (7:00 pm)
Humidity56.9 %92 % (1:51 am)29 % (11:51 pm)
Barometer30.12 in30.35 in (10:51 pm)29.92 in (1:51 am)
Wind Speed5.2 mph9.2 mph (7:51 pm)
Wind Gust23 mph (1:51 pm)
Weather ElementAverage
Visibility8 mi
Wind DirectionESE (114.8 °)

Weather ElementTotal
Precipitation---
Heating Degree Days31.1 (Base 65)
Averaged from 23 records on February 6, 2013
WEATHER CONDITIONS BREAKOUT
WIND DIRECTION BREAKOUT
WEATHER BY HOUR - FEBRUARY 6, 2013
[ °C ]   °F
Local TimeTemperatureDewpointHumidityBarometerVisibilityWind DirectionWind SpeedGust SpeedPrecipitationEventsConditions
1:51 AM30.0 °F28.0 °F92 %29.92 in2.5 miWNW (300°)3.5 mphOvercast
3:51 AM30.9 °F28.0 °F89 %29.94 in4.0 miCalmOvercast
4:25 AM30.9 °F28.0 °F89 %29.96 in4.0 miCalmOvercast
5:07 AM30.9 °F27.0 °F85 %29.98 in5.0 miWest (260°)6.9 mphOvercast
5:51 AM30.9 °F26.1 °F82 %29.98 in5.0 miWest (280°)4.6 mphHaze
6:51 AM30.9 °F26.1 °F82 %30.01 in5.0 miVariable3.5 mphHaze
7:51 AM30.9 °F25.0 °F79 %30.05 in4.0 miWSW (250°)6.9 mphHaze
8:51 AM32.0 °F24.1 °F73 %30.07 in5.0 miVariable6.9 mph17.3 mphHaze
9:51 AM34.0 °F21.9 °F61 %30.09 in9.0 miVariable6.9 mph18.4 mphClear
10:51 AM36.0 °F21.9 °F57 %30.10 in10.0 miNorthMostly Cloudy
11:51 AM37.0 °F19.9 °F50 %30.09 in10.0 miNW (320°)8.1 mph18.4 mphScattered Clouds
12:51 PM37.0 °F19.0 °F48 %30.09 in10.0 miNorthOvercast
1:51 PM37.0 °F17.1 °F44 %30.10 in10.0 miWNW (300°)8.1 mph23.0 mphOvercast
2:51 PM39.0 °F17.1 °F41 %30.12 in10.0 miCalmMostly Cloudy
3:51 PM37.9 °F17.1 °F43 %30.14 in10.0 miVariable5.8 mph21.9 mphClear
4:51 PM37.0 °F16.0 °F42 %30.17 in10.0 miWNW (300°)4.6 mphClear
5:51 PM36.0 °F14.0 °F41 %30.20 in10.0 miNW (320°)8.1 mphClear
6:51 PM36.0 °F12.9 °F39 %30.25 in10.0 miVariable5.8 mphClear
7:51 PM34.0 °F10.9 °F38 %30.28 in10.0 miNW (310°)9.2 mph19.6 mphClear
8:51 PM32.0 °F10.0 °F40 %30.31 in10.0 miVariable5.8 mph18.4 mphClear
9:51 PM30.9 °F3.9 °F32 %30.32 in10.0 miVariable5.8 mphClear
10:51 PM30.0 °F3.0 °F32 %30.35 in10.0 miVariable4.6 mphClear
11:51 PM28.9 °F0.0 °F29 %30.35 in10.0 miVariable3.5 mphClear
Hourly data recorded from KNYC, located miles away from New York - Central Park, New York







STORIES FROM OUR PARTNERS